John Quigg — WDB9828 — position and weather

sailwx.info

Track history (hours):
 
Tides and Currents Weather Stations Pressure Air Temp Water Temp Dewpoint Dewpoint Depression Visibility Wind Speed Wind Dir Waves Ship Positions

John Quigg

Owner: Harley Marine Services, Inc, Seattle, WA. More information available from US FCC via Universal Licensing System and Coast Guard Vessel Documentation Center.

Last reported at 2014-Oct-25 11:33 UTC. Time now 2014-Oct-25 11:57 UTC.
Position N 33°45' W 118°16'.

MMSI: 365934954.

Date/timePositionNaut miles runAvg speedWind from/ knotsBaromVisibWave heightAir tempDewpointWater temp
2014-Oct-25 11:33N 33°45' W 118°16'1 0.9
2014-Oct-25 10:33N 33°45' W 118°17'1 1.2
2014-Oct-25 09:33N 33°44' W 118°15'0 0.2
2014-Oct-25 08:33N 33°44' W 118°15'0 0.0
2014-Oct-25 07:33N 33°44' W 118°15'0 0.3
2014-Oct-25 06:33N 33°44' W 118°16'0 0.0
2014-Oct-25 05:33N 33°44' W 118°16'0 0.0
2014-Oct-25 04:31N 33°44' W 118°16'0 0.1
2014-Oct-25 03:14N 33°44' W 118°16'1 1.9
2014-Oct-25 02:33N 33°43' W 118°15'3 3.2
2014-Oct-25 01:33N 33°45' W 118°12'0 0.0
2014-Oct-25 00:33N 33°45' W 118°12'0 0.0
2014-Oct-24 23:33N 33°45' W 118°12'1 0.6
2014-Oct-24 22:34N 33°45' W 118°12'3 2.9
2014-Oct-24 21:33N 33°44' W 118°16'2 1.6
2014-Oct-24 20:33N 33°45' W 118°16'1 1.4
2014-Oct-24 19:33N 33°44' W 118°16'1 0.5
2014-Oct-24 18:29N 33°44' W 118°16'1 1.2
2014-Oct-24 17:32N 33°45' W 118°17'1 1.0
2014-Oct-24 16:33N 33°46' W 118°16'3 2.1
2014-Oct-24 15:23N 33°43' W 118°16'5 6.1
2014-Oct-24 14:33N 33°44' W 118°10'3 3.4
2014-Oct-24 13:33N 33°46' W 118°13'3 2.9
2014-Oct-24 12:33N 33°44' W 118°12'3 3.0
2014-Oct-24 11:33N 33°43' W 118°15'1 0.7
2014-Oct-24 10:03N 33°44' W 118°16'0 0.0
2014-Oct-24 09:33N 33°44' W 118°16'0 0.0
2014-Oct-24 08:33N 33°44' W 118°16'0 0.0
2014-Oct-24 07:34N 33°44' W 118°16'2 1.9
2014-Oct-24 06:33N 33°46' W 118°16'2 1.8
2014-Oct-24 05:33N 33°44' W 118°16'0 0.0
2014-Oct-24 04:33N 33°44' W 118°16'0 0.0
2014-Oct-24 03:33N 33°44' W 118°16'0 0.0
2014-Oct-24 00:33N 33°44' W 118°16'0 0.0
2014-Oct-23 23:33N 33°44' W 118°16'1 1.2
2014-Oct-23 22:33N 33°45' W 118°16'2 2.2
2014-Oct-23 21:33N 33°43' W 118°16'5 4.8
2014-Oct-23 20:33N 33°44' W 118°10'1 0.9
2014-Oct-23 19:33N 33°44' W 118°11'3 3.3
2014-Oct-23 18:32N 33°43' W 118°15'1 0.6
2014-Oct-23 16:30N 33°44' W 118°16'0 0.0
2014-Oct-23 15:06N 33°44' W 118°16'0 0.0
2014-Oct-23 14:29N 33°44' W 118°16'0 0.0
2014-Oct-23 13:32N 33°44' W 118°16'0 0.2
2014-Oct-23 12:30N 33°44' W 118°16'4 4.2
2014-Oct-23 11:33N 33°44' W 118°11'1 0.6
2014-Oct-23 10:33N 33°44' W 118°12'0 0.0
2014-Oct-23 09:33N 33°44' W 118°12'1 1.0
2014-Oct-23 08:28N 33°45' W 118°12'3 2.9
2014-Oct-23 07:25N 33°44' W 118°16'0 0.2
2014-Oct-23 06:27N 33°44' W 118°16'0 0.0
2014-Oct-23 05:33N 33°44' W 118°16'0 0.0
2014-Oct-23 04:33N 33°44' W 118°16'0 0.0
2014-Oct-23 03:33N 33°44' W 118°16'0 0.0
2014-Oct-23 02:33N 33°44' W 118°16'0 0.0
2014-Oct-23 01:33N 33°44' W 118°16'1 1.4
2014-Oct-23 00:33N 33°43' W 118°14'3 3.2
2014-Oct-22 23:34N 33°46' W 118°13'0 0.1
2014-Oct-22 19:33N 33°46' W 118°14'1 1.1
2014-Oct-22 18:33N 33°46' W 118°15'2 0.9
2014-Oct-22 16:06N 33°44' W 118°16'3 5.2
2014-Oct-22 15:33N 33°45' W 118°13'1 0.7
2014-Oct-22 14:33N 33°45' W 118°13'1 0.4
2014-Oct-22 12:33N 33°44' W 118°13'2 2.3
2014-Oct-22 11:33N 33°46' W 118°13'1 1.0
2014-Oct-22 10:33N 33°45' W 118°13'0 0.0
2014-Oct-22 09:33N 33°45' W 118°13'0 0.0
2014-Oct-22 08:33N 33°45' W 118°13'0 0.0
2014-Oct-22 07:33N 33°45' W 118°13'1 1.4
2014-Oct-22 06:33N 33°47' W 118°13'2 1.6
2014-Oct-22 05:33N 33°45' W 118°12'0 0.1
2014-Oct-22 04:33N 33°45' W 118°12'0 0.1
2014-Oct-22 03:31N 33°45' W 118°12'2 1.6
2014-Oct-22 02:34N 33°46' W 118°14'3 3.1
2014-Oct-22 01:33N 33°44' W 118°12'4 3.9
2014-Oct-22 00:33N 33°46' W 118°15'3 2.8
2014-Oct-21 23:33N 33°43' W 118°15'1 0.3
2014-Oct-21 20:07N 33°44' W 118°16'4 5.7
2014-Oct-21 19:25N 33°44' W 118°11'2 0.2
2014-Oct-21 09:07N 33°44' W 118°14'2 2.2
2014-Oct-21 08:27N 33°45' W 118°12'3 0.6
2014-Oct-21 03:19N 33°45' W 118°16'1 1.4
2014-Oct-21 02:33N 33°46' W 118°16'0 0.0
2014-Oct-21 01:33N 33°46' W 118°16'0 0.0
2014-Oct-21 00:33N 33°46' W 118°16'0 0.0
2014-Oct-20 23:33N 33°46' W 118°16'2 0.2
2014-Oct-20 12:33N 33°44' W 118°13'1 0.7
2014-Oct-20 11:33N 33°45' W 118°13'1 0.7
2014-Oct-20 10:33N 33°44' W 118°13'2 2.1
2014-Oct-20 09:33N 33°46' W 118°13'3 2.5
2014-Oct-20 08:33N 33°44' W 118°13'1 0.1
2014-Oct-19 23:33N 33°45' W 118°13'0 0.0
2014-Oct-19 22:33N 33°45' W 118°13'0 0.0
2014-Oct-19 21:33N 33°45' W 118°13'1 1.4
2014-Oct-19 20:33N 33°46' W 118°13'0 0.3
2014-Oct-19 19:33N 33°46' W 118°13'1 0.5
2014-Oct-19 18:33N 33°46' W 118°13'3 0.9
2014-Oct-19 15:26N 33°45' W 118°16'0 0.2
2014-Oct-19 14:32N 33°45' W 118°16'1 0.1
2014-Oct-19 03:33N 33°46' W 118°16'4 2.0
2014-Oct-19 01:32N 33°44' W 118°11'2 1.6
2014-Oct-19 00:33N 33°45' W 118°12'0 0.1
2014-Oct-18 21:33N 33°45' W 118°12'1 0.6
2014-Oct-18 20:33N 33°44' W 118°12'3 1.7
2014-Oct-18 18:33N 33°45' W 118°16'1 0.3
2014-Oct-18 15:11N 33°45' W 118°17'0 0.2
2014-Oct-18 13:07N 33°45' W 118°16'0 0.9
2014-Oct-18 12:33N 33°45' W 118°16'3 0.3
2014-Oct-18 03:13N 33°44' W 118°13'0 0.7
2014-Oct-18 02:33N 33°44' W 118°13'3 3.0
2014-Oct-18 01:33N 33°46' W 118°16'3 0.7
2014-Oct-17 21:24N 33°44' W 118°13'2 2.9
2014-Oct-17 20:33N 33°46' W 118°14'0 0.0
2014-Oct-17 19:33N 33°46' W 118°14'1 1.0
2014-Oct-17 18:29N 33°47' W 118°13'4 1.1
2014-Oct-17 15:17N 33°45' W 118°16'3 1.7
2014-Oct-17 13:30N 33°46' W 118°13'1 0.9
2014-Oct-17 12:33N 33°45' W 118°13'0 0.3
2014-Oct-17 11:33N 33°45' W 118°13'0 0.3
2014-Oct-17 10:33N 33°45' W 118°13'0 0.0
2014-Oct-17 09:33N 33°45' W 118°13'2 2.3
2014-Oct-17 08:33N 33°44' W 118°11'1 1.1
2014-Oct-17 07:28N 33°43' W 118°13'1 0.1
2014-Oct-16 22:10N 33°44' W 118°14'1 0.2
2014-Oct-16 14:18N 33°44' W 118°16'3 3.8
2014-Oct-16 13:32N 33°45' W 118°12'0 0.0
2014-Oct-16 12:33N 33°45' W 118°12'1 1.1
2014-Oct-16 11:33N 33°44' W 118°13'0 0.0
2014-Oct-16 01:31N 33°44' W 118°13'1 1.4
2014-Oct-16 00:27N 33°45' W 118°15'0 0.0
2014-Oct-15 23:33N 33°45' W 118°15'0 0.4
2014-Oct-15 22:33N 33°45' W 118°14'2 1.6
2014-Oct-15 21:33N 33°44' W 118°12'1 1.5
2014-Oct-15 20:33N 33°46' W 118°13'0 0.1
2014-Oct-15 19:33N 33°45' W 118°13'1 0.3
2014-Oct-15 16:21N 33°45' W 118°13'2 2.2
2014-Oct-15 15:33N 33°46' W 118°13'3 1.8
2014-Oct-15 14:06N 33°44' W 118°14'2 3.0
2014-Oct-15 13:33N 33°45' W 118°13'0 0.0
2014-Oct-15 12:33N 33°45' W 118°13'0 0.0
2014-Oct-15 11:33N 33°45' W 118°13'  
Track history (hours):
 
Tides and Currents Weather Stations Pressure Air Temp Water Temp Dewpoint Dewpoint Depression Visibility Wind Speed Wind Dir Waves Ship Positions

John Quigg

Owner: Harley Marine Services, Inc, Seattle, WA. More information available from US FCC via Universal Licensing System and Coast Guard Vessel Documentation Center.

Last reported at 2014-Oct-25 11:33 UTC. Time now 2014-Oct-25 11:57 UTC.
Position N 33°45' W 118°16'.

MMSI: 365934954.

Date/timePositionNaut miles runAvg speedWind from/ knotsBaromVisibWave heightAir tempDewpointWater temp
2014-Oct-25 11:33N 33°45' W 118°16'1 0.9
2014-Oct-25 10:33N 33°45' W 118°17'1 1.2
2014-Oct-25 09:33N 33°44' W 118°15'0 0.2
2014-Oct-25 08:33N 33°44' W 118°15'0 0.0
2014-Oct-25 07:33N 33°44' W 118°15'0 0.3
2014-Oct-25 06:33N 33°44' W 118°16'0 0.0
2014-Oct-25 05:33N 33°44' W 118°16'0 0.0
2014-Oct-25 04:31N 33°44' W 118°16'0 0.1
2014-Oct-25 03:14N 33°44' W 118°16'1 1.9
2014-Oct-25 02:33N 33°43' W 118°15'3 3.2
2014-Oct-25 01:33N 33°45' W 118°12'0 0.0
2014-Oct-25 00:33N 33°45' W 118°12'0 0.0
2014-Oct-24 23:33N 33°45' W 118°12'1 0.6
2014-Oct-24 22:34N 33°45' W 118°12'3 2.9
2014-Oct-24 21:33N 33°44' W 118°16'2 1.6
2014-Oct-24 20:33N 33°45' W 118°16'1 1.4
2014-Oct-24 19:33N 33°44' W 118°16'1 0.5
2014-Oct-24 18:29N 33°44' W 118°16'1 1.2
2014-Oct-24 17:32N 33°45' W 118°17'1 1.0
2014-Oct-24 16:33N 33°46' W 118°16'3 2.1
2014-Oct-24 15:23N 33°43' W 118°16'5 6.1
2014-Oct-24 14:33N 33°44' W 118°10'3 3.4
2014-Oct-24 13:33N 33°46' W 118°13'3 2.9
2014-Oct-24 12:33N 33°44' W 118°12'3 3.0
2014-Oct-24 11:33N 33°43' W 118°15'1 0.7
2014-Oct-24 10:03N 33°44' W 118°16'0 0.0
2014-Oct-24 09:33N 33°44' W 118°16'0 0.0
2014-Oct-24 08:33N 33°44' W 118°16'0 0.0
2014-Oct-24 07:34N 33°44' W 118°16'2 1.9
2014-Oct-24 06:33N 33°46' W 118°16'2 1.8
2014-Oct-24 05:33N 33°44' W 118°16'0 0.0
2014-Oct-24 04:33N 33°44' W 118°16'0 0.0
2014-Oct-24 03:33N 33°44' W 118°16'0 0.0
2014-Oct-24 00:33N 33°44' W 118°16'0 0.0
2014-Oct-23 23:33N 33°44' W 118°16'1 1.2
2014-Oct-23 22:33N 33°45' W 118°16'2 2.2
2014-Oct-23 21:33N 33°43' W 118°16'5 4.8
2014-Oct-23 20:33N 33°44' W 118°10'1 0.9
2014-Oct-23 19:33N 33°44' W 118°11'3 3.3
2014-Oct-23 18:32N 33°43' W 118°15'1 0.6
2014-Oct-23 16:30N 33°44' W 118°16'0 0.0
2014-Oct-23 15:06N 33°44' W 118°16'0 0.0
2014-Oct-23 14:29N 33°44' W 118°16'0 0.0
2014-Oct-23 13:32N 33°44' W 118°16'0 0.2
2014-Oct-23 12:30N 33°44' W 118°16'4 4.2
2014-Oct-23 11:33N 33°44' W 118°11'1 0.6
2014-Oct-23 10:33N 33°44' W 118°12'0 0.0
2014-Oct-23 09:33N 33°44' W 118°12'1 1.0
2014-Oct-23 08:28N 33°45' W 118°12'3 2.9
2014-Oct-23 07:25N 33°44' W 118°16'0 0.2
2014-Oct-23 06:27N 33°44' W 118°16'0 0.0
2014-Oct-23 05:33N 33°44' W 118°16'0 0.0
2014-Oct-23 04:33N 33°44' W 118°16'0 0.0
2014-Oct-23 03:33N 33°44' W 118°16'0 0.0
2014-Oct-23 02:33N 33°44' W 118°16'0 0.0
2014-Oct-23 01:33N 33°44' W 118°16'1 1.4
2014-Oct-23 00:33N 33°43' W 118°14'3 3.2
2014-Oct-22 23:34N 33°46' W 118°13'0 0.1
2014-Oct-22 19:33N 33°46' W 118°14'1 1.1
2014-Oct-22 18:33N 33°46' W 118°15'2 0.9
2014-Oct-22 16:06N 33°44' W 118°16'3 5.2
2014-Oct-22 15:33N 33°45' W 118°13'1 0.7
2014-Oct-22 14:33N 33°45' W 118°13'1 0.4
2014-Oct-22 12:33N 33°44' W 118°13'2 2.3
2014-Oct-22 11:33N 33°46' W 118°13'1 1.0
2014-Oct-22 10:33N 33°45' W 118°13'0 0.0
2014-Oct-22 09:33N 33°45' W 118°13'0 0.0
2014-Oct-22 08:33N 33°45' W 118°13'0 0.0
2014-Oct-22 07:33N 33°45' W 118°13'1 1.4
2014-Oct-22 06:33N 33°47' W 118°13'2 1.6
2014-Oct-22 05:33N 33°45' W 118°12'0 0.1
2014-Oct-22 04:33N 33°45' W 118°12'0 0.1
2014-Oct-22 03:31N 33°45' W 118°12'2 1.6
2014-Oct-22 02:34N 33°46' W 118°14'3 3.1
2014-Oct-22 01:33N 33°44' W 118°12'4 3.9
2014-Oct-22 00:33N 33°46' W 118°15'3 2.8
2014-Oct-21 23:33N 33°43' W 118°15'1 0.3
2014-Oct-21 20:07N 33°44' W 118°16'4 5.7
2014-Oct-21 19:25N 33°44' W 118°11'2 0.2
2014-Oct-21 09:07N 33°44' W 118°14'2 2.2
2014-Oct-21 08:27N 33°45' W 118°12'3 0.6
2014-Oct-21 03:19N 33°45' W 118°16'1 1.4
2014-Oct-21 02:33N 33°46' W 118°16'0 0.0
2014-Oct-21 01:33N 33°46' W 118°16'0 0.0
2014-Oct-21 00:33N 33°46' W 118°16'0 0.0
2014-Oct-20 23:33N 33°46' W 118°16'2 0.2
2014-Oct-20 12:33N 33°44' W 118°13'1 0.7
2014-Oct-20 11:33N 33°45' W 118°13'1 0.7
2014-Oct-20 10:33N 33°44' W 118°13'2 2.1
2014-Oct-20 09:33N 33°46' W 118°13'3 2.5
2014-Oct-20 08:33N 33°44' W 118°13'1 0.1
2014-Oct-19 23:33N 33°45' W 118°13'0 0.0
2014-Oct-19 22:33N 33°45' W 118°13'0 0.0
2014-Oct-19 21:33N 33°45' W 118°13'1 1.4
2014-Oct-19 20:33N 33°46' W 118°13'0 0.3
2014-Oct-19 19:33N 33°46' W 118°13'1 0.5
2014-Oct-19 18:33N 33°46' W 118°13'3 0.9
2014-Oct-19 15:26N 33°45' W 118°16'0 0.2
2014-Oct-19 14:32N 33°45' W 118°16'1 0.1
2014-Oct-19 03:33N 33°46' W 118°16'4 2.0
2014-Oct-19 01:32N 33°44' W 118°11'2 1.6
2014-Oct-19 00:33N 33°45' W 118°12'0 0.1
2014-Oct-18 21:33N 33°45' W 118°12'1 0.6
2014-Oct-18 20:33N 33°44' W 118°12'3 1.7
2014-Oct-18 18:33N 33°45' W 118°16'1 0.3
2014-Oct-18 15:11N 33°45' W 118°17'0 0.2
2014-Oct-18 13:07N 33°45' W 118°16'0 0.9
2014-Oct-18 12:33N 33°45' W 118°16'3 0.3
2014-Oct-18 03:13N 33°44' W 118°13'0 0.7
2014-Oct-18 02:33N 33°44' W 118°13'3 3.0
2014-Oct-18 01:33N 33°46' W 118°16'3 0.7
2014-Oct-17 21:24N 33°44' W 118°13'2 2.9
2014-Oct-17 20:33N 33°46' W 118°14'0 0.0
2014-Oct-17 19:33N 33°46' W 118°14'1 1.0
2014-Oct-17 18:29N 33°47' W 118°13'4 1.1
2014-Oct-17 15:17N 33°45' W 118°16'3 1.7
2014-Oct-17 13:30N 33°46' W 118°13'1 0.9
2014-Oct-17 12:33N 33°45' W 118°13'0 0.3
2014-Oct-17 11:33N 33°45' W 118°13'0 0.3
2014-Oct-17 10:33N 33°45' W 118°13'0 0.0
2014-Oct-17 09:33N 33°45' W 118°13'2 2.3
2014-Oct-17 08:33N 33°44' W 118°11'1 1.1
2014-Oct-17 07:28N 33°43' W 118°13'1 0.1
2014-Oct-16 22:10N 33°44' W 118°14'1 0.2
2014-Oct-16 14:18N 33°44' W 118°16'3 3.8
2014-Oct-16 13:32N 33°45' W 118°12'0 0.0
2014-Oct-16 12:33N 33°45' W 118°12'1 1.1
2014-Oct-16 11:33N 33°44' W 118°13'0 0.0
2014-Oct-16 01:31N 33°44' W 118°13'1 1.4
2014-Oct-16 00:27N 33°45' W 118°15'0 0.0
2014-Oct-15 23:33N 33°45' W 118°15'0 0.4
2014-Oct-15 22:33N 33°45' W 118°14'2 1.6
2014-Oct-15 21:33N 33°44' W 118°12'1 1.5
2014-Oct-15 20:33N 33°46' W 118°13'0 0.1
2014-Oct-15 19:33N 33°45' W 118°13'1 0.3
2014-Oct-15 16:21N 33°45' W 118°13'2 2.2
2014-Oct-15 15:33N 33°46' W 118°13'3 1.8
2014-Oct-15 14:06N 33°44' W 118°14'2 3.0
2014-Oct-15 13:33N 33°45' W 118°13'0 0.0
2014-Oct-15 12:33N 33°45' W 118°13'0 0.0
2014-Oct-15 11:33N 33°45' W 118°13'  

Dump ship's entire track history